Terminal Aerodrome Forecast
Issued by NWS

Home | Current Version | Previous Version | Text Only | Print | Product List | Glossary Off
Versions: 1 2 3 4 5 6 7 8 9 10 11 12 13 14 15 16 17 18 19 20 21 22 23 24

000
FTUS43 KGRB 210443 AAA
TAFMTW
TAF AMD
KMTW 210443Z 2105/2124 08005KT 5SM -DZ BR OVC010
     FM210900 15006KT 4SM -DZ OVC003
      TEMPO 2109/2113 2SM -SHRA
     FM211300 18006KT 6SM BR VCSH OVC004
     FM211500 23009G14KT P6SM BKN009 OVC020
     FM211900 24011G22KT P6SM BKN030=

USA.gov is the U.S. government's official web portal to all federal, state and local government web resources and services.